This demonstration page uses our WeatherBlox Daily Observations layout. Learn more.

39.29038, -76.61219

Hourly Observations for April 13, 2016

Temp ( °F °C ) Dew Point ( °F °C ) Humidity (%) Winds ( mph kmh ) Pressure ( in mb ) Visibility ( mi km ) Precip ( " mm )
12:54 am 00:54 undefined 50 10 23 -5 35 35 undefined N/A 30.31 1026 N/A 0 0
1:54 am 01:54 undefined 47 8.3 24 -4.4 41 41 undefined N/A 30.31 1026 N/A 0 0
2:54 am 02:54 undefined 46 7.8 24 -4.4 42 42 undefined N/A 30.33 1027 N/A 0 0
3:54 am 03:54 undefined 45 7.2 24 -4.4 44 44 undefined N/A 30.35 1028 N/A 0 0
4:54 am 04:54 undefined 44 6.7 24 -4.4 45 45 undefined N/A 30.37 1029 N/A 0 0
5:54 am 05:54 undefined 43 6.1 23 -5 45 45 undefined N/A 30.39 1029 N/A 0 0
6:54 am 06:54 undefined 43 6.1 23 -5 45 45 undefined N/A 30.41 1030 N/A 0 0
7:54 am 07:54 undefined 44 6.7 24 -4.4 45 45 undefined N/A 30.44 1031 N/A 0 0
8:54 am 08:54 undefined 46 7.8 26 -3.3 46 46 undefined N/A 30.46 1031 N/A 0 0
9:54 am 09:54 undefined 48 8.9 27 -2.8 44 44 undefined N/A 30.47 1032 N/A 0 0
10:54 am 10:54 undefined 49 9.4 27 -2.8 43 43 undefined N/A 30.46 1031 N/A 0 0
11:54 am 11:54 undefined 51 10.6 27 -2.8 39 39 undefined N/A 30.42 1030 N/A 0 0
12:54 pm 12:54 undefined 53 11.7 27 -2.8 37 37 undefined N/A 30.39 1029 N/A 0 0
1:54 pm 13:54 undefined 53 11.7 29 -1.7 40 40 undefined N/A 30.36 1028 N/A 0 0
2:54 pm 14:54 undefined 55 12.8 30 -1.1 38 38 undefined N/A 30.34 1028 N/A 0 0
3:54 pm 15:54 undefined 56 13.3 31 -0.6 39 39 undefined N/A 30.33 1027 N/A 0 0
4:54 pm 16:54 undefined 57 13.9 29 -1.7 34 34 undefined N/A 30.33 1027 N/A 0 0
5:54 pm 17:54 undefined 55 12.8 29 -1.7 37 37 undefined N/A 30.31 1026 N/A 0 0
6:54 pm 18:54 undefined 54 12.2 28 -2.2 37 37 undefined N/A 30.3 1026 N/A 0 0
7:54 pm 19:54 undefined 53 11.7 29 -1.7 40 40 undefined N/A 30.29 1026 N/A 0 0
8:54 pm 20:54 undefined 52 11.1 27 -2.8 38 38 undefined N/A 30.32 1027 N/A 0 0
9:54 pm 21:54 undefined 52 11.1 27 -2.8 38 38 undefined N/A 30.32 1027 N/A 0 0
10:54 pm 22:54 undefined 51 10.6 29 -1.7 43 43 undefined N/A 30.31 1027 N/A 0 0
11:54 pm 23:54 undefined 49 9.4 37 2.8 64 64 undefined N/A 30.31 1027 N/A 0 0

Powered by AerisWeather